#timestamp,LO_Frequency,Hit,StdDev 
1649818815.7,286047000.9,N
1649818835.5,286047001.0,N
1649818855.4,286047000.4,N
1649818875.2,286046998.9,N
1649818895.1,286046999.0,N
1649818896.0,286046999.0,N
1649818915.8,286046996.9,N
1649818935.6,286046998.6,N
1649818955.5,286046999.9,N
1649818975.3,286047001.2,N
1649818995.1,286047001.2,N
1649819015.9,286046999.3,N
1649819035.7,286046998.3,N
1649819055.6,286046999.2,N
1649819075.4,286046997.7,N
1649819095.2,286046999.5,N
1649819115.1,286047000.0,N
1649819116.0,286047000.0,N
1649819135.8,286046996.5,N
1649819155.7,286046999.1,N
1649819175.0,286046998.4,N
1649819175.9,286046998.4,N
1649819195.8,286046998.7,N
1649819215.6,286047000.9,N
1649819235.5,286046998.5,N
1649819255.3,286046996.6,N
1649819275.1,286047001.1,N
1649819295.9,286047001.2,N
1649819315.7,286046998.5,N
1649819335.5,286046999.4,N
1649819355.4,286046996.8,N
1649819375.2,286046998.8,N
1649819395.1,286047000.9,N
1649819396.0,286047000.9,N
1649819415.8,286046997.2,N
1649819435.6,286046997.3,N
1649819455.5,286046997.9,N
1649819475.3,286046998.4,N
1649819495.1,286046999.0,N
1649819515.9,286046997.1,N
1649819535.7,286046999.0,N
1649819555.6,286046997.1,N
1649819575.4,286046997.5,N
1649819595.2,286046996.5,N
1649819615.1,286046998.0,N
1649819616.0,286046998.0,N
1649819635.8,286046998.5,N
1649819655.7,286046998.6,N
1649819675.5,286046998.1,N
1649819695.3,286047000.0,N
1649819715.2,286047000.8,N
1649819735.0,286047000.7,N
1649819735.9,286047000.7,N
1649819755.7,286047002.7,N
1649819775.6,286047002.7,N
1649819795.4,286047002.8,N
1649819815.3,286047001.7,N
1649819835.1,286047000.8,N
1649819836.0,286047000.8,N
1649819855.8,286046998.5,N
1649819875.7,286047001.0,N
1649819895.5,286046999.7,N
1649819915.4,286047002.4,N
1649819935.2,286047000.8,N
1649819955.0,286046995.1,N
1649819955.9,286046995.1,N
1649819975.8,286046997.2,N
1649819995.6,286046997.8,N
1649820015.4,286046997.7,N
1649820035.3,286046998.9,N
1649820055.1,286046997.4,N
1649820075.9,286046998.4,N
1649820095.7,286046999.4,N
1649820115.5,286046996.9,N
1649820135.4,286046998.3,N
1649820155.2,286047000.4,N
1649820175.0,286047000.7,N
1649820175.9,286047000.7,N
1649820195.8,286046998.3,N
1649820215.6,286047001.0,N
1649820235.5,286047000.8,N
1649820255.3,286047000.8,N
1649820275.1,286047000.2,N
1649820295.9,286047000.2,N
1649820315.7,286047001.0,N
1649820335.5,286047000.8,N
1649820355.4,286046998.6,N
1649820375.2,286047000.9,N
1649820395.1,286046998.1,N
1649820396.0,286046998.1,N
1649820415.8,286046999.3,N
1649820435.6,286046998.4,N
1649820455.5,286046998.1,N
1649820475.3,286047002.3,N
1649820495.1,286046999.9,N
1649820515.9,286047000.6,N
1649820535.7,286047000.3,N
1649820555.6,286046998.2,N
1649820575.4,286047001.0,N
1649820595.2,286047000.6,N
1649820615.1,286046999.3,N
1649820616.0,286046999.3,N
1649820635.8,286046998.9,N
1649820655.7,286046999.8,N
1649820675.5,286047000.9,N
1649820695.3,286046999.4,N
1649820715.2,286046996.5,Y
1649820735.0,286046999.5,P
1649820735.9,286046999.5,N
1649820755.7,286046997.1,P
1649820775.6,286046996.7,Y
1649820795.4,286046999.3,P
1649820815.3,286046999.6,N
1649820835.1,286046999.0,P
1649820836.0,286046999.0,Y
1649820855.8,286046999.8,P
1649820875.7,286047002.6,P
1649820895.5,286046999.9,N
1649820915.4,286047000.4,N
1649820935.2,286047001.3,N
1649820955.0,286047001.7,N
1649820955.9,286047001.7,N
1649820975.8,286047004.0,Y
1649820995.6,286047001.1,P
1649821015.4,286047000.5,P
1649821035.3,286047001.1,P
1649821055.1,286047002.4,Y
1649821075.9,286046998.4,P
1649821095.7,286047000.9,N
1649821115.5,286046999.2,N
1649821135.4,286046996.7,Y
1649821155.2,286046996.8,P
1649821175.0,286046997.1,N
1649821176.0,286046997.1,N
1649821195.8,286047001.1,N
1649821215.6,286047001.0,N
1649821235.5,286047000.1,N
1649821255.3,286046999.7,N
1649821275.1,286047002.1,N
1649821295.9,286047001.3,N
1649821315.7,286047002.0,N
1649821335.6,286047001.0,N
1649821355.4,286047003.9,N
1649821375.2,286047002.6,N
1649821395.1,286047001.8,N
1649821396.0,286047001.8,N
1649821415.8,286047003.4,N
1649821435.6,286047004.3,N
1649821455.5,286047001.8,N
1649821475.3,286047003.4,N
1649821495.2,286047005.9,N
1649821515.9,286047004.1,N
1649821535.7,286047003.7,N
1649821555.6,286047004.1,N
1649821575.4,286047004.0,N
1649821595.2,286047005.5,N
1649821615.1,286047003.8,N
1649821616.0,286047003.8,N
1649821635.8,286046999.9,N
1649821655.7,286047002.7,N
1649821675.5,286047000.2,N
1649821695.3,286047000.1,N
1649821715.2,286047001.1,N
1649821735.0,286046999.1,N
1649821735.9,286046999.1,N
1649821755.7,286047000.1,N
1649821775.6,286046999.8,N
1649821795.4,286047000.6,N
1649821815.3,286046998.2,N
1649821835.1,286046999.2,N
1649821855.8,286046999.6,N
1649821875.7,286047001.2,N
1649821895.5,286046999.4,N
1649821915.4,286046998.8,N
1649821935.2,286046998.1,N
1649821955.0,286047002.3,N
1649821955.9,286047002.3,N
1649821975.8,286046999.7,N
1649821995.6,286046999.9,N
1649822015.4,286047000.6,N
1649822035.3,286046999.7,N
1649822055.1,286047002.0,N
1649822075.9,286047002.3,N
1649822095.7,286047001.7,N
1649822115.5,286047003.1,N
1649822135.4,286047003.4,N
1649822155.2,286047001.8,N
1649822175.0,286047002.1,N
1649822176.0,286047002.1,N
1649822195.8,286046999.9,N
1649822215.6,286046999.7,N
1649822235.5,286047001.2,N
1649822255.3,286047001.2,N
1649822275.2,286047000.8,N
1649822295.9,286046999.7,N
1649822315.7,286047002.3,N
1649822335.6,286047002.8,N
1649822355.4,286046999.8,N
1649822375.2,286046999.7,N
1649822395.1,286047001.3,N
1649822396.0,286047001.3,N
